Temp
22 21 21 21 21 21 21 21 21 21 21 21 21 21 21 21 21 21 21 21 21 21 21 21 21 21 21 20 20 20 20 20 20 20 20 20 20 20 20 20 20 20
22 21 21 21 21 21 21 21 21 21 21 21 21 21 21 21 21 21 21 21 21 21 21 21 21 21 21 20 20 20 20 20 20 20 20 20 20 20 20 20 20 20
21 21 21 21 21 21 21 21 20 20 20 21 21 21 21 21 21 21 21 21 21 21 21 21 21 20 20 20 20 20 20 20 20 20 20 20 20 20 20 20 20 20
21 21 21 21 21 20 20 20 20 20 20 20 21 21 21 21 21 21 21 21 21 21 21 21 21 21 20 20 20 20 20 20 20 20 20 20 20 20 20 20 20 20
21 21 21 21 21 21 21 21 20 20 20 20 21 21 21 21 21 21 21 21 21 21 21 21 21 21 21 20 20 20 20 20 20 20 20 20 20 20 20 20 20 20
22 22 21 21 21 21 21 21 21 20 20 20 21 21 21 21 21 21 21 21 21 21 21 21 21 21 20 20 20 20 20 20 20 20 20 20 20 20 20 20 20 20
22 22 22 21 21 21 21 21 21 21 21 20 21 21 21 21 21 21 22 21 21 21 21 21 21 21 21 20 20 20 20 20 20 20 19 19 19 20 20 20 20 20
23 22 22 22 22 21 22 22 21 21 21 21 21 21 21 21 21 21 22 22 21 21 21 21 21 21 21 20 20 20 20 20 20 19 19 19 20 19 19 20 20 20
22 22 22 22 22 22 22 22 21 21 21 20 20 20 20 20 21 21 21 22 22 22 22 21 21 21 21 20 20 20 20 20 20 20 20 20 20 19 19 19 19 19
22 22 22 22 22 22 22 21 21 20 20 20 20 19 19 20 21 21 21 21 22 22 22 21 21 21 21 20 20 20 20 20 20 20 20 19 19 19 19 19 19 19
22 22 22 22 22 22 22 21 21 20 19 19 19 19 19 21 21 20 20 21 21 22 22 21 21 21 21 20 20 20 20 20 20 19 19 19 19 19 19 19 18 18
22 22 22 22 22 22 21 21 20 19 19 19 20 20 21 22 22 21 20 21 21 22 22 21 21 21 21 20 20 20 20 20 19 19 19 19 18 19 19 18 18 18
22 22 22 22 22 21 21 20 20 20 20 20 21 21 22 22 21 21 21 21 21 22 21 21 21 21 20 20 20 20 20 19 19 19 19 18 18 18 18 18 18 18
22 22 22 21 21 21 20 20 20 20 20 20 21 21 22 22 21 21 21 21 21 21 21 21 21 20 20 19 20 19 19 19 19 19 19 18 18 18 18 18 18 18
22 22 21 21 21 21 20 20 20 20 20 20 21 21 21 21 21 21 21 20 20 21 21 20 20 20 19 19 19 20 19 19 19 18 18 18 18 18 18 18 18 18
22 21 21 21 20 20 20 20 20 20 20 20 20 20 21 21 21 21 21 21 21 21 20 20 20 20 20 20 20 19 19 19 18 18 18 18 18 18 18 18 18 18
21 20 20 20 20 20 21 21 20 20 20 20 20 20 20 20 20 20 20 20 20 20 20 20 20 20 20 19 19 19 19 18 18 18 18 18 18 18 18 18 18 18
19 18 19 19 20 21 21 21 20 20 20 20 20 20 20 20 20 20 20 20 20 20 20 20 20 20 19 19 19 19 18 18 18 18 18 18 18 18 18 18 18 18
18 19 20 21 21 20 20 20 20 20 20 20 20 20 20 20 20 20 20 20 20 20 20 20 20 19 19 19 18 18 18 18 18 18 18 18 18 18 18 17 17 17
20 21 22 22 21 20 20 20 20 20 20 20 20 20 20 20 20 20 20 19 19 19 20 20 19 19 19 18 18 18 18 17 18 18 18 17 17 17 17 17 17 17
21 21 22 22 21 20 20 20 20 20 20 20 20 20 19 20 20 20 20 19 19 19 19 19 19 18 18 18 18 18 18 17 18 17 17 17 17 17 17 17 16 17
21 21 21 21 21 20 20 20 20 20 20 20 20 19 19 19 19 19 19 19 19 19 19 19 19 18 18 18 18 18 17 17 17 17 17 17 17 17 16 16 16 16
20 20 21 21 20 20 20 20 20 20 20 20 20 19 19 19 19 19 19 19 19 18 18 18 18 18 18 18 18 18 17 17 17 17 17 17 16 16 16 16 16 16
20 20 20 20 20 19 20 20 20 19 20 20 19 19 19 19 19 19 18 18 18 18 18 18 18 18 18 18 17 17 17 17 17 17 16 16 16 16 16 16 16 16
19 20 20 20 19 19 19 19 19 19 19 19 19 19 18 18 18 18 18 18 18 18 18 18 18 18 18 17 17 17 17 17 17 17 16 16 16 16 16 16 16 15
20 20 20 20 20 19 19 18 18 19 19 19 18 18 18 18 18 18 18 18 17 17 17 17 17 17 17 17 17 17 17 17 17 17 17 16 16 16 16 15 15 15
Height
1535 1536 1538 1539 1540 1541 1542 1543 1544 1545 1546 1546 1547 1548 1549 1551 1552 1553 1554 1554 1555 1555 1555 1556 1556 1556 1557 1557 1558 1558 1559 1560 1560 1561 1561 1561 1561 1561 1561 1561 1561 1561
1533 1534 1536 1537 1538 1539 1540 1541 1542 1543 1544 1545 1546 1547 1548 1550 1551 1552 1552 1553 1554 1554 1554 1555 1555 1555 1555 1556 1556 1557 1558 1558 1559 1559 1560 1560 1560 1560 1560 1560 1560 1560
1531 1533 1534 1535 1536 1537 1539 1540 1541 1542 1543 1544 1545 1546 1548 1549 1550 1550 1551 1552 1553 1553 1554 1554 1554 1554 1554 1554 1555 1555 1556 1557 1557 1558 1558 1558 1558 1559 1559 1559 1559 1558
1528 1530 1531 1533 1534 1535 1537 1539 1539 1541 1542 1543 1544 1545 1546 1547 1549 1549 1550 1551 1552 1552 1553 1553 1553 1553 1553 1554 1554 1554 1555 1555 1555 1556 1556 1556 1556 1557 1557 1557 1557 1557
1525 1527 1528 1529 1531 1533 1534 1535 1537 1538 1540 1541 1542 1543 1544 1545 1547 1547 1549 1550 1550 1551 1552 1552 1552 1553 1553 1553 1553 1553 1553 1553 1553 1554 1554 1554 1554 1554 1555 1555 1555 1554
1522 1524 1525 1527 1528 1529 1531 1532 1534 1536 1537 1539 1541 1542 1543 1543 1545 1546 1547 1548 1549 1549 1550 1550 1551 1551 1552 1552 1552 1552 1552 1552 1552 1552 1552 1552 1552 1553 1553 1553 1552 1552
1519 1521 1522 1524 1525 1527 1528 1530 1532 1534 1536 1537 1539 1540 1541 1541 1543 1544 1545 1546 1547 1548 1549 1549 1549 1550 1550 1551 1551 1552 1551 1551 1551 1551 1551 1551 1551 1551 1550 1550 1550 1550
1516 1518 1520 1521 1523 1524 1526 1527 1530 1532 1533 1535 1537 1538 1539 1540 1541 1542 1543 1544 1545 1546 1547 1547 1548 1548 1549 1550 1550 1551 1550 1550 1550 1550 1550 1549 1549 1549 1548 1548 1548 1548
1514 1515 1517 1519 1520 1522 1523 1526 1528 1529 1531 1533 1534 1534 1535 1537 1539 1541 1542 1543 1543 1544 1544 1545 1546 1547 1548 1548 1549 1549 1549 1549 1549 1548 1548 1547 1547 1547 1547 1546 1546 1546
1510 1512 1515 1517 1518 1520 1522 1524 1527 1529 1530 1528 1527 1529 1532 1535 1539 1540 1541 1541 1541 1541 1542 1543 1544 1545 1546 1546 1547 1547 1548 1547 1547 1547 1546 1545 1545 1545 1545 1544 1544 1544
1508 1510 1512 1514 1516 1519 1521 1524 1526 1525 1523 1522 1525 1530 1534 1536 1538 1539 1539 1539 1539 1540 1541 1542 1542 1543 1544 1544 1545 1545 1545 1545 1545 1545 1544 1544 1544 1543 1543 1542 1542 1542
1506 1508 1510 1512 1515 1517 1520 1523 1522 1519 1519 1524 1529 1531 1533 1532 1533 1536 1537 1537 1537 1538 1539 1540 1540 1541 1541 1542 1542 1543 1543 1544 1543 1542 1542 1542 1542 1541 1541 1540 1540 1540
1503 1505 1508 1510 1513 1516 1518 1520 1518 1518 1522 1527 1527 1526 1528 1529 1530 1533 1535 1535 1535 1536 1536 1537 1538 1538 1539 1540 1541 1542 1542 1542 1541 1541 1540 1540 1540 1539 1539 1539 1539 1538
1501 1504 1506 1509 1511 1513 1516 1516 1516 1519 1522 1524 1524 1525 1526 1527 1528 1530 1531 1532 1533 1533 1534 1535 1535 1536 1537 1539 1540 1540 1540 1539 1539 1539 1539 1538 1538 1537 1537 1537 1537 1537
1499 1501 1503 1506 1508 1510 1513 1513 1514 1518 1519 1520 1522 1523 1524 1525 1526 1526 1528 1529 1530 1531 1532 1532 1532 1534 1535 1536 1537 1537 1537 1537 1537 1537 1537 1537 1536 1536 1536 1536 1536 1536
1495 1497 1500 1503 1505 1507 1509 1510 1511 1514 1516 1518 1519 1521 1522 1523 1524 1524 1525 1527 1529 1530 1530 1530 1532 1533 1533 1533 1534 1534 1535 1535 1536 1536 1536 1536 1536 1535 1535 1535 1535 1535
1490 1493 1497 1501 1503 1505 1506 1507 1509 1512 1514 1516 1518 1520 1521 1521 1522 1523 1524 1525 1527 1528 1529 1529 1531 1532 1531 1531 1532 1533 1533 1534 1534 1535 1535 1535 1535 1535 1535 1535 1535 1535
1488 1493 1498 1502 1504 1505 1505 1505 1508 1510 1512 1514 1516 1517 1518 1519 1520 1522 1523 1524 1526 1527 1528 1528 1529 1530 1530 1530 1531 1532 1532 1533 1534 1534 1534 1534 1534 1534 1534 1534 1534 1534
1490 1494 1498 1501 1502 1503 1504 1505 1507 1509 1511 1512 1513 1514 1516 1517 1519 1520 1521 1523 1524 1525 1527 1528 1528 1529 1529 1530 1530 1531 1532 1532 1533 1533 1533 1533 1533 1533 1533 1533 1533 1534
1492 1493 1494 1496 1498 1501 1504 1505 1506 1507 1509 1510 1512 1513 1514 1515 1517 1518 1520 1521 1523 1524 1526 1526 1527 1528 1529 1529 1530 1531 1531 1532 1532 1533 1533 1533 1533 1532 1533 1533 1533 1534
1491 1490 1491 1494 1497 1500 1502 1503 1504 1505 1507 1508 1509 1511 1512 1513 1515 1516 1518 1520 1521 1523 1524 1525 1526 1527 1528 1529 1530 1530 1531 1532 1532 1532 1532 1532 1532 1532 1533 1533 1533 1534
1489 1489 1491 1494 1496 1498 1499 1500 1502 1504 1505 1506 1507 1508 1510 1511 1512 1514 1516 1517 1519 1521 1523 1524 1525 1526 1527 1528 1529 1530 1531 1531 1532 1532 1532 1532 1533 1533 1533 1534 1534 1534
1488 1489 1491 1493 1496 1497 1498 1499 1501 1502 1504 1505 1505 1506 1507 1508 1510 1511 1513 1515 1517 1519 1521 1522 1524 1525 1526 1527 1528 1528 1530 1531 1531 1531 1532 1532 1533 1534 1534 1534 1534 1533
1487 1488 1490 1493 1495 1497 1497 1498 1500 1502 1503 1503 1504 1504 1504 1506 1507 1509 1511 1514 1516 1517 1519 1521 1522 1523 1524 1525 1526 1527 1528 1529 1530 1530 1531 1532 1533 1533 1534 1533 1533 1533
1486 1487 1488 1490 1493 1496 1497 1497 1498 1500 1501 1501 1502 1502 1502 1504 1506 1508 1510 1512 1514 1516 1517 1519 1521 1522 1523 1524 1525 1527 1528 1528 1529 1530 1530 1531 1532 1533 1533 1533 1533 1533
1483 1485 1486 1488 1490 1493 1496 1497 1497 1498 1499 1499 1499 1499 1501 1503 1506 1509 1511 1512 1513 1514 1516 1518 1520 1521 1522 1524 1525 1527 1528 1528 1529 1529 1530 1531 1532 1532 1532 1532 1532 1533
Wind_Speed
27 27 26 26 28 28 28 28 28 27 26 27 27 25 23 21 20 19 17 14 11 10 9 10 10 12 14 13 12 11 12 12 12 11 11 11 10 10 9 9 8 7
28 27 27 27 28 29 28 27 27 25 23 24 26 25 23 21 18 17 16 15 13 10 9 10 9 10 13 13 12 12 13 14 15 15 14 13 13 12 10 10 10 10
28 27 27 27 27 29 29 27 27 25 23 23 23 24 24 21 15 13 13 13 13 10 8 9 9 10 11 11 12 13 14 16 17 17 17 17 17 16 13 12 12 13
28 28 27 27 27 27 28 27 27 25 22 23 23 22 23 20 15 13 12 12 12 11 9 9 9 10 11 11 11 12 14 17 18 19 18 17 17 18 18 17 16 16
28 27 27 27 26 25 26 28 29 27 25 24 22 18 19 17 15 15 14 13 13 13 12 10 10 11 10 11 11 12 13 14 16 17 16 14 13 14 16 17 18 18
26 26 26 27 26 25 26 28 30 30 28 26 22 18 18 18 17 16 15 14 14 14 14 13 12 12 11 10 11 11 12 12 13 13 13 13 12 13 14 15 17 17
26 26 26 26 26 26 26 27 29 29 29 28 24 20 19 20 20 19 17 16 15 15 16 15 15 14 12 11 11 12 12 11 11 12 13 13 13 14 15 15 16 16
26 26 26 26 25 26 26 26 26 27 28 28 25 23 22 21 20 20 19 18 18 17 16 16 16 16 14 13 12 13 13 13 12 13 14 15 15 15 16 16 17 16
26 26 26 26 26 25 25 24 24 24 24 25 25 25 24 22 20 20 21 20 19 19 18 16 16 15 15 15 15 15 15 15 15 16 17 17 16 16 16 16 16 16
27 26 26 26 26 25 25 23 22 22 24 25 27 24 21 22 21 18 20 22 22 21 19 17 16 16 16 16 17 16 17 18 18 18 19 18 16 16 16 15 16 16
29 28 27 26 26 25 24 21 20 25 26 23 22 20 17 22 23 17 17 21 24 23 20 18 18 17 18 18 19 18 18 19 19 19 18 17 16 16 16 16 16 16
31 29 28 26 26 25 23 22 24 29 26 18 18 19 16 20 24 21 16 18 22 24 21 20 20 20 20 21 20 19 18 17 18 18 17 16 16 15 15 15 15 14
31 30 28 26 26 25 25 26 28 30 25 20 20 21 18 18 20 21 19 17 19 22 21 20 21 22 21 20 18 18 17 17 18 17 16 15 15 15 14 13 12 11
31 29 27 26 27 26 27 28 28 27 24 22 23 21 18 17 16 19 22 20 19 19 19 20 20 20 18 16 16 16 16 16 15 15 15 14 13 12 10 9 7 6
29 29 27 25 26 26 27 27 27 26 25 25 24 21 17 16 15 17 20 22 22 20 20 19 18 16 15 14 14 14 14 14 13 13 12 11 9 8 6 5 4 3
29 30 27 26 26 25 25 26 26 26 26 26 24 20 18 17 16 17 19 21 23 23 22 20 16 15 15 14 13 13 13 13 12 11 9 7 6 5 4 3 3 2
31 28 23 22 23 23 22 24 25 25 25 24 21 19 19 19 18 19 20 19 21 22 22 19 17 16 15 13 12 12 11 11 10 8 8 7 6 5 4 2 2 1
24 17 13 13 17 19 20 23 24 24 23 23 22 22 22 20 19 20 19 19 20 21 19 18 16 15 13 12 11 11 10 9 9 9 8 7 5 4 3 2 2 1
13 9 8 12 16 17 19 21 23 23 24 24 24 24 22 19 18 18 18 19 20 19 17 16 16 14 12 11 10 10 9 10 10 9 7 6 5 4 3 2 2 1
9 10 10 13 16 17 17 19 21 22 22 23 23 22 19 18 17 17 18 19 19 18 16 15 15 13 11 10 10 10 11 11 10 8 7 6 5 4 3 2 2 2
10 12 12 11 13 14 16 19 20 20 20 21 21 20 18 18 17 18 18 19 18 17 16 15 14 12 11 11 11 11 12 11 9 8 8 7 6 4 4 4 3 2
11 12 13 13 13 15 16 18 19 19 19 19 19 19 18 18 18 18 18 18 17 15 14 13 13 12 12 13 12 12 12 11 10 9 9 7 6 6 5 4 3 3
11 12 14 15 15 16 17 19 20 18 16 17 19 19 19 19 19 19 18 17 16 14 13 12 12 13 13 13 13 13 13 12 11 10 8 7 6 5 3 2 3 5
11 12 13 15 16 16 18 20 21 18 16 16 18 20 22 22 22 21 19 16 15 14 13 13 13 13 12 13 14 14 14 13 11 10 8 6 5 3 1 1 2 4
11 11 13 14 16 17 20 22 22 20 18 19 21 23 24 24 23 21 19 18 16 16 16 14 13 13 13 14 15 15 14 12 11 9 8 7 5 3 2 2 3 5
12 12 13 13 12 14 19 24 24 22 22 23 23 24 24 23 21 18 17 18 18 17 16 13 12 14 15 16 15 14 12 11 10 9 8 8 6 5 4 3 3 4
Wind_Direction
242 241 240 237 232 228 227 226 227 228 230 232 234 236 241 246 250 251 251 248 246 249 243 231 229 228 218 202 196 206 219 234 248 251 247 246 243 243 250 258 257 254
242 243 242 241 236 232 229 227 227 228 229 232 234 238 244 248 248 250 252 249 243 241 232 224 226 228 219 209 206 215 227 236 242 246 247 248 249 247 248 250 250 254
241 243 243 243 240 235 233 231 228 228 231 234 237 241 246 246 242 242 245 241 236 235 230 224 228 234 231 224 221 226 234 239 241 245 248 250 250 249 249 250 251 254
241 244 243 243 242 238 235 231 227 227 231 235 238 242 243 238 232 237 239 235 233 235 235 231 230 234 234 231 231 237 242 243 243 244 247 248 247 247 247 249 252 255
241 243 241 239 239 236 232 227 224 224 229 234 236 235 232 229 231 240 240 235 238 239 238 237 235 233 233 232 235 243 247 243 238 238 240 243 247 249 250 252 255 258
239 238 236 236 236 233 229 225 223 223 227 233 232 225 225 232 236 239 237 235 241 240 236 239 241 238 236 236 238 243 245 241 236 237 243 251 258 260 259 258 257 258
235 234 232 232 233 232 230 228 225 225 227 231 230 224 229 239 239 234 234 238 241 238 235 239 244 244 241 241 242 242 244 245 244 245 250 255 260 264 268 268 267 267
233 232 230 230 231 232 232 230 229 229 228 228 228 226 231 239 238 234 236 238 239 240 241 242 246 248 245 242 243 243 246 250 250 248 251 256 261 269 276 277 277 279
232 232 231 231 232 233 233 232 231 230 228 226 226 228 232 232 226 228 237 237 237 242 245 244 243 245 243 241 242 245 246 247 249 252 256 261 265 273 279 278 277 278
231 232 232 231 233 233 232 231 230 230 229 228 227 229 234 230 221 225 236 236 235 241 242 240 238 237 236 235 238 240 240 243 249 255 259 263 267 274 279 278 276 275
229 231 233 232 233 233 232 230 230 231 230 229 233 236 235 231 228 230 239 236 234 237 239 237 238 240 239 237 237 238 239 244 251 255 261 267 271 274 276 275 274 273
230 231 233 234 234 235 235 232 232 234 233 231 239 244 239 230 227 226 233 236 232 233 236 238 242 244 241 238 239 241 244 249 255 258 264 269 270 270 271 272 271 270
231 232 233 234 235 236 236 236 236 240 242 238 238 243 242 233 225 219 220 226 227 227 231 237 240 239 236 237 241 246 249 253 255 258 262 264 266 269 269 269 270 271
231 233 234 235 236 235 235 238 239 242 246 242 239 243 242 236 231 221 215 218 221 223 227 231 232 233 237 241 244 247 250 251 251 255 259 262 265 267 265 264 263 258
231 232 234 233 234 234 235 239 241 242 243 242 240 242 241 235 232 222 214 217 222 226 229 230 230 239 248 249 246 248 251 252 253 255 256 257 256 252 246 241 233 229
229 231 231 230 230 232 236 240 242 243 242 241 239 237 236 232 224 217 215 219 227 231 234 237 242 249 253 250 249 252 254 253 252 248 238 230 223 212 204 204 211 225
226 224 224 228 230 233 239 241 242 243 241 238 233 230 233 231 222 218 219 222 228 232 236 243 248 247 246 247 248 249 249 242 229 214 199 193 190 188 192 197 189 202
222 216 216 231 237 237 238 239 238 239 237 235 233 234 237 233 222 217 219 223 229 233 238 244 245 242 240 240 238 236 232 213 191 180 179 181 182 184 186 163 125 125
223 231 236 250 251 243 239 237 237 238 237 236 238 239 236 226 217 217 221 227 232 235 238 240 239 236 233 226 222 217 201 180 169 172 173 165 163 165 156 122 92 61
243 249 246 250 248 241 239 240 240 240 238 236 236 234 228 220 219 223 225 228 231 231 232 233 230 225 217 209 204 191 175 166 165 164 153 143 146 149 141 130 117 80
245 236 232 238 238 236 239 239 238 237 237 236 234 229 226 223 224 225 223 222 224 224 225 223 216 206 197 190 183 171 164 165 162 151 145 145 140 120 107 118 122 82
233 224 224 231 233 233 233 231 230 231 232 234 234 229 225 222 219 218 218 218 218 217 214 207 197 190 184 177 169 163 163 165 159 154 154 145 122 104 102 106 87 37
233 222 226 236 237 232 230 226 221 219 221 226 229 227 222 217 213 212 212 213 210 204 196 187 182 182 178 169 163 164 165 162 161 162 157 140 124 118 108 74 34 9
242 234 238 250 251 240 232 225 218 215 215 216 218 219 217 212 210 208 203 198 193 185 178 178 179 178 172 166 166 168 166 164 167 166 159 156 156 154 140 28 353 345
240 241 247 256 257 247 234 224 220 224 222 214 213 215 212 206 203 200 191 180 176 174 172 175 178 170 164 165 168 169 169 170 172 172 171 177 184 191 207 247 307 327
238 243 247 248 250 254 245 233 230 232 226 217 213 210 205 198 192 188 181 172 170 171 169 168 170 164 160 164 167 168 172 177 181 186 192 194 195 203 221 246 287 317